User: anonymous   Login
Location: Fort Wayne
(41.1310°N, 85.1290°W)
Time: 13:17:07
(UTC-05:00)
Language:

Cosmos 2082 - Orbit

View from above orbital plane
View from above orbital plane
View from above satellite
View from above satellite

Ground track
Ground track

The orbit data is extracted from the following two-line orbital elements,

1 20624U 90046A   16341.87779658  .00000319  00000-0  19151-3 0  9998
2 20624  71.0415 257.0722 0016381 314.6676  45.3110 14.14215539370000
Epoch (UTC): 06 December 2016 21:04:01
Eccentricity: 0.0016381
inclination: 71.0415°
perigee height: 833 km
apogee height: 857 km
right ascension of ascending node: 257.0722°
argument of perigee: 314.6676°
revolutions per day: 14.14215539
mean anomaly at epoch: 45.3110°
orbit number at epoch: 37000

The dashed part of the orbit path shows where the satellite is in the earth's shadow,  

DLR